Location: B
(0.0000°N, 0.0000°E)
Time: 00:13:55
(UTC+01:00)

Amateur Radio Satellites - All Passes

Search period start: 25 November 2014 23:43
Search period end: 26 November 2014 23:43
Location: B, 0.0000°N, 0.0000°E

Satellite Date Start Highest point End Downlink Frequencies (MHz)
Time Altitude Azimuth
TISAT 1 25 Nov 23:49:03 23:49:47 10° 78° (ENE) 23:50:31 437.305
AISAT 25 Nov 23:49:25 23:53:19 29° 258° (WSW) 23:57:12 437.250
POLYITAN 1 25 Nov 23:52:24 23:56:29 50° 282° (WNW) 00:00:38 437.675
CUSAT 1 25 Nov 23:53:02 23:53:49 10° 91° (E) 23:54:38 437.405
QB50P2 25 Nov 23:54:41 23:58:43 46° 282° (WNW) 00:02:48 145.880/145.840
SPROUT 25 Nov 23:56:30 23:58:02 12° 78° (ENE) 23:59:33 437.525
DUCHIFAT 1 26 Nov 00:01:12 00:05:05 37° 282° (WNW) 00:09:01 145.980
FUNcube-1 26 Nov 00:01:48 00:03:09 11° 257° (WSW) 00:04:30 145.935
CUBEBUG 1 26 Nov 00:03:36 00:08:03 70° 258° (WSW) 00:12:28 437.445
JUGNU 26 Nov 00:03:42 00:06:52 15° 348° (NNW) 00:10:03 437.505
SRMSAT 26 Nov 00:10:44 00:15:36 26° 343° (NNW) 00:20:28 437.500
DANDE 26 Nov 00:13:14 00:17:05 16° 91° (E) 00:21:23 436.750
PHONESAT 2.4 26 Nov 00:15:55 00:19:35 85° 43° (NE) 00:23:15 2401.200-2431.200
NANOSAT C BR1 26 Nov 00:21:20 00:24:25 20° 282° (WNW) 00:27:30 145.865
TIGRISAT 26 Nov 00:25:33 00:27:43 13° 282° (WNW) 00:29:54 435.000
VERMONT LUNAR 26 Nov 00:29:24 00:32:41 34° 223° (SW) 00:35:58 437.305
QB50P1 26 Nov 00:31:56 00:34:14 14° 282° (WNW) 00:36:32 145.935-145.965
BUGSAT 1 26 Nov 00:46:17 00:47:15 11° 282° (WNW) 00:48:12 437.445
ESTCUBE 1 26 Nov 00:58:47 01:00:45 13° 258° (WSW) 01:02:43 437.505/2401.250
BEESAT 26 Nov 01:04:23 01:05:28 11° 77° (ENE) 01:06:33 436.000
Oscar 19 26 Nov 01:10:03 01:12:37 14° 103° (ESE) 01:15:12 437.125/150
TISAT 1 26 Nov 01:21:35 01:25:21 30° 258° (WSW) 01:29:07 437.305
AUBIESAT-1 26 Nov 01:24:12 01:27:13 26° 73° (ENE) 01:30:25 437.475
M-CUBED/EXP-1 PRIME 26 Nov 01:28:53 01:32:09 35° 74° (ENE) 01:35:38 437.505
CUSAT 1 26 Nov 01:29:29 01:36:00 77° 265° (W) 01:44:10 437.405
SPROUT 26 Nov 01:30:08 01:33:52 28° 258° (WSW) 01:37:34 437.525
RS-15 26 Nov 01:46:04 01:51:18 14° 67° (ENE) 01:56:33 29.354- 29.394
DANDE 26 Nov 01:53:32 01:59:48 54° 263° (W) 02:07:41 436.750
ITUPSAT 1 26 Nov 01:56:05 02:00:48 57° 78° (ENE) 02:05:29 437.325
ITAMSAT 1 26 Nov 02:01:24 02:04:45 18° 103° (ESE) 02:08:05 435.822/435.867
SRMSAT 26 Nov 02:02:57 02:05:30 13° 350° (N) 02:08:04 437.500
SWISSCUBE 26 Nov 02:07:05 02:11:54 89° 259° (W) 02:16:41 437.505
Gurwin Techsat 1B 26 Nov 02:30:53 02:34:41 20° 103° (ESE) 02:38:29 435.225
STARS 26 Nov 02:33:12 02:35:22 13° 78° (ENE) 02:37:31 437.465
MaSat-1 26 Nov 02:34:36 02:37:05 38° 74° (ENE) 02:39:49 437.345
BEESAT 26 Nov 02:38:38 02:43:02 37° 258° (WSW) 02:47:26 436.000
Oscar 19 26 Nov 02:46:59 02:51:40 35° 282° (WNW) 02:56:23 437.125/150
YUBILEINY 26 Nov 02:59:17 03:08:06 72° 93° (E) 03:16:50 435.215
HORYU 2 26 Nov 03:05:44 03:08:36 17° 103° (ESE) 03:11:28 437.375
KKS-1 26 Nov 03:10:41 03:15:11 82° 78° (ENE) 03:19:38 437.445
SO-50 26 Nov 03:34:40 03:38:48 41° 292° (WNW) 03:42:58 436.795
ITAMSAT 1 26 Nov 03:39:36 03:43:57 28° 283° (WNW) 03:48:19 435.822/435.867
JUGNU 26 Nov 03:44:52 03:47:11 12° 9° (N) 03:49:31 437.505
RS-15 26 Nov 03:51:40 04:03:25 86° 250° (WSW) 04:15:40 29.354- 29.394
STARS 26 Nov 04:07:54 04:11:35 26° 258° (WSW) 04:15:15 437.465
Gurwin Techsat 1B 26 Nov 04:10:03 04:14:22 26° 283° (WNW) 04:18:42 435.225
HORYU 2 26 Nov 04:41:32 04:45:00 22° 282° (WNW) 04:48:29 437.375
AO-7 26 Nov 04:48:44 04:57:05 77° 106° (ESE) 05:05:26 29.400- 29.500
O/OREOS (USA 219) 26 Nov 04:50:54 04:52:37 12° 105° (ESE) 04:54:19 437.305
YUBILEINY 26 Nov 05:01:18 05:04:29 12° 273° (W) 05:07:40 435.215
JUGNU 26 Nov 05:32:14 05:36:59 24° 17° (NNE) 05:41:44 437.505
JAS-2 26 Nov 05:32:24 05:38:07 44° 101° (ESE) 05:43:17 435.910
SRMSAT 26 Nov 05:43:03 05:46:10 14° 11° (NNE) 05:49:17 437.500
MOZHAYETS 4 26 Nov 05:49:54 05:54:26 68° 258° (WSW) 05:58:58
RS-15 26 Nov 06:12:06 06:16:00 12° 245° (WSW) 06:19:57 29.354- 29.394
Cubesat XI-IV 26 Nov 06:16:58 06:21:21 27° 103° (ESE) 06:25:44 437.490
STRAND 1 26 Nov 06:23:04 06:23:52 10° 77° (ENE) 06:24:41 437.568
O/OREOS (USA 219) 26 Nov 06:27:51 06:31:45 28° 284° (WNW) 06:35:37 437.305
AO-7 26 Nov 06:46:27 06:49:23 12° 287° (WNW) 06:52:20 29.400- 29.500
CUTE-I 26 Nov 06:57:27 07:02:44 82° 103° (ESE) 07:08:03 437.470
PCSat 26 Nov 07:02:47 07:08:07 63° 71° (ENE) 07:13:26 145.827
PRISM 26 Nov 07:06:23 07:10:22 45° 258° (WSW) 07:14:22 437.425
AIST 2 26 Nov 07:06:42 07:07:42 11° 67° (ENE) 07:08:41 435.215
JAS-2 26 Nov 07:20:12 07:22:43 13° 286° (WNW) 07:25:08 435.910
JUGNU 26 Nov 07:20:20 07:26:15 61° 21° (NNE) 07:32:10 437.505
CUBESAT XI-V 26 Nov 07:30:35 07:35:18 87° 258° (WSW) 07:40:01 437.345
SRMSAT 26 Nov 07:30:46 07:35:58 30° 19° (NNE) 07:41:08 437.500
AIST 1 26 Nov 07:46:29 07:50:26 36° 86° (E) 07:54:22
BEESAT 3 26 Nov 07:52:47 07:56:43 47° 249° (WSW) 08:00:36 437.485
Cubesat XI-IV 26 Nov 07:57:27 08:01:10 20° 283° (WNW) 08:04:54 437.490
STRAND 1 26 Nov 07:57:52 08:02:46 45° 257° (WSW) 08:07:40 437.568
BEESAT 2 26 Nov 08:08:22 08:12:03 32° 248° (WSW) 08:15:41 435.950
AIST 2 26 Nov 08:42:28 08:46:05 28° 248° (WSW) 08:49:40 435.215
BRITE-PL 26 Nov 08:45:16 08:47:29 14° 104° (ESE) 08:49:46 437.365/2234.400
GONETS M04 26 Nov 08:49:26 08:58:11 81° 93° (E) 09:06:59
SEEDS 26 Nov 09:02:59 09:06:12 21° 102° (ESE) 09:09:26 437.485
ISS 26 Nov 09:09:09 09:12:04 29° 55° (NE) 09:15:00 145.825
JUGNU 26 Nov 09:09:35 09:15:21 49° 201° (SSW) 09:21:06 437.505
HO-68 26 Nov 09:11:12 09:18:02 50° 105° (ESE) 09:24:52 435.675
DOVE 4 26 Nov 09:12:54 09:15:36 16° 104° (ESE) 09:18:23 437.250
SRMSAT 26 Nov 09:19:19 09:25:17 81° 21° (NNE) 09:31:15 437.500
AAUSAT CUBESAT 2 26 Nov 09:19:41 09:23:09 25° 102° (ESE) 09:26:37 437.432
CANX-2 26 Nov 09:29:51 09:34:08 73° 102° (ESE) 09:38:27 2200.000
DX 1 26 Nov 09:31:55 09:33:56 13° 103° (ESE) 09:35:58 434.975-435.025
COMPASS 1 26 Nov 09:34:17 09:38:24 48° 102° (ESE) 09:42:31 437.405
CINEMA 3 26 Nov 09:48:11 09:51:55 26° 103° (ESE) 09:55:48 145.822/145.860
GOMX 1 26 Nov 09:52:49 09:57:11 85° 101° (E) 10:01:53 467.674
ZACube-1 26 Nov 10:00:01 10:02:13 14° 103° (ESE) 10:04:26 437.345
CUTE 1.7 & AOD 2 26 Nov 10:04:47 10:08:46 38° 281° (WNW) 10:12:46 437.475
BRITE-PL 26 Nov 10:22:12 10:25:42 24° 280° (W) 10:29:24 437.365/2234.400
AISAT 26 Nov 10:26:50 10:29:51 18° 102° (ESE) 10:32:52 437.250
UKube-1 26 Nov 10:30:03 10:34:22 86° 282° (WNW) 10:38:42 .
FUNcube-1 26 Nov 10:33:04 10:37:10 40° 102° (ESE) 10:41:23 145.935
VERMONT LUNAR 26 Nov 10:34:01 10:35:42 13° 138° (SE) 10:37:22 437.305
DUCHIFAT 1 26 Nov 10:35:52 10:36:34 10° 78° (ENE) 10:37:16 145.980
SEEDS 26 Nov 10:39:13 10:41:46 16° 282° (WNW) 10:44:20 437.485
Oscar 11 26 Nov 10:41:29 10:45:41 48° 282° (WNW) 10:49:54 145.826/435.025
DOVE 4 26 Nov 10:49:36 10:53:04 23° 280° (W) 10:56:44 437.250
NANOSAT C BR1 26 Nov 10:52:48 10:55:58 20° 78° (ENE) 10:59:06 145.865
AAUSAT CUBESAT 2 26 Nov 10:56:43 10:58:34 13° 282° (WNW) 11:00:25 437.432
CUBEBUG 2 26 Nov 10:58:44 11:03:03 56° 281° (WNW) 11:07:33 437.445
UWE-3 26 Nov 10:58:55 11:03:16 67° 281° (WNW) 11:07:47 435.000/436.395/437.385
DELFI C3 26 Nov 11:00:02 11:03:40 30° 281° (WNW) 11:07:19 145.870
JUGNU 26 Nov 11:00:24 11:04:42 20° 196° (SSW) 11:08:59 437.505
HO-68 26 Nov 11:01:02 11:05:23 17° 285° (WNW) 11:09:46 435.675
TIGRISAT 26 Nov 11:01:03 11:05:13 42° 79° (ENE) 11:09:16 435.000
QB50P1 26 Nov 11:02:11 11:05:51 28° 78° (ENE) 11:09:29 145.935-145.965
50 SAT 26 Nov 11:05:53 11:09:51 49° 102° (ESE) 11:13:52 437.505
DX 1 26 Nov 11:06:22 11:09:54 25° 282° (WNW) 11:13:28 434.975-435.025
SRMSAT 26 Nov 11:09:06 11:14:33 37° 200° (SSW) 11:19:59 437.500
BUGSAT 1 26 Nov 11:12:27 11:16:13 30° 78° (ENE) 11:19:59 437.445
UNISAT 6 26 Nov 11:14:30 11:18:53 71° 78° (ENE) 11:23:09 437.425
HUMSAT D 26 Nov 11:17:01 11:21:16 86° 281° (WNW) 11:25:35 437.325/437.525
POPSAT HIP 1 26 Nov 11:26:22 11:30:39 64° 78° (ENE) 11:34:52 437.405
CINEMA 3 26 Nov 11:26:35 11:28:54 14° 281° (W) 11:31:17 145.822/145.860
ESTCUBE 1 26 Nov 11:34:31 11:38:49 45° 102° (ESE) 11:43:07 437.505/2401.250
ZACube-1 26 Nov 11:34:41 11:38:18 26° 281° (W) 11:42:00 437.345
VELOX 1 26 Nov 11:35:46 11:39:57 45° 282° (WNW) 11:44:10 145.980
ANTELSAT 26 Nov 11:43:28 11:47:37 42° 258° (WSW) 11:51:41 437.575/2403.000
TISAT 1 26 Nov 11:54:35 11:56:26 13° 102° (ESE) 11:58:18 437.305
PHONESAT 2.4 26 Nov 11:59:32 12:03:12 78° 137° (SE) 12:06:53 2401.200-2431.200
POLYITAN 1 26 Nov 12:00:13 12:04:13 38° 258° (WSW) 12:08:12 437.675
QB50P2 26 Nov 12:02:15 12:06:12 36° 258° (WSW) 12:10:07 145.880/145.840
AISAT 26 Nov 12:03:07 12:06:13 19° 282° (WNW) 12:09:21 437.250
SPROUT 26 Nov 12:04:00 12:06:29 15° 102° (ESE) 12:08:58 437.525
DUCHIFAT 1 26 Nov 12:08:25 12:12:11 30° 258° (WSW) 12:15:56 145.980
VERMONT LUNAR 26 Nov 12:10:42 12:14:04 38° 317° (NW) 12:17:26 437.305
CUBEBUG 1 26 Nov 12:14:42 12:18:51 47° 282° (WNW) 12:23:00 437.445
NANOSAT C BR1 26 Nov 12:28:55 12:31:35 16° 258° (WSW) 12:34:14 145.865
QB50P1 26 Nov 12:40:02 12:41:28 12° 258° (WSW) 12:42:55 145.935-145.965
CUSAT 1 26 Nov 12:40:40 12:43:34 19° 101° (ESE) 12:46:00 437.405
BUGSAT 1 26 Nov 12:50:46 12:51:26 10° 258° (WSW) 12:52:07 437.445
JUGNU 26 Nov 12:53:07 12:54:36 11° 187° (S) 12:56:04 437.505
SRMSAT 26 Nov 13:00:34 13:04:11 16° 193° (SSW) 13:07:49 437.500
DANDE 26 Nov 13:05:58 13:10:09 39° 99° (E) 13:13:21 436.750
BEESAT 26 Nov 13:24:09 13:27:45 22° 103° (ESE) 13:31:21 436.000
AUBIESAT-1 26 Nov 13:27:22 13:31:38 36° 105° (ESE) 13:35:38 437.475
TISAT 1 26 Nov 13:28:38 13:32:01 24° 282° (WNW) 13:35:24 437.305
M-CUBED/EXP-1 PRIME 26 Nov 13:32:27 13:37:00 49° 105° (ESE) 13:41:14 437.505
SPROUT 26 Nov 13:39:05 13:42:18 21° 282° (WNW) 13:45:33 437.525
YUBILEINY 26 Nov 13:40:43 13:45:06 15° 87° (E) 13:49:28 435.215
Oscar 19 26 Nov 13:41:49 13:46:28 35° 78° (ENE) 13:51:05 437.125/150
MaSat-1 26 Nov 14:08:23 14:11:18 23° 109° (ESE) 14:14:02 437.345
SO-50 26 Nov 14:08:28 14:11:51 19° 67° (ENE) 14:15:13 436.795
ITUPSAT 1 26 Nov 14:18:43 14:23:28 72° 282° (WNW) 14:28:13 437.325
SWISSCUBE 26 Nov 14:29:49 14:34:20 44° 282° (WNW) 14:38:51 437.505
ITAMSAT 1 26 Nov 14:34:52 14:39:53 47° 77° (ENE) 14:44:52 435.822/435.867
STARS 26 Nov 14:43:55 14:47:04 19° 102° (ESE) 14:50:14 437.465
BEESAT 26 Nov 15:01:57 15:05:19 19° 282° (WNW) 15:08:42 436.000
AUBIESAT-1 26 Nov 15:04:56 15:06:14 11° 288° (WNW) 15:07:32 437.475
Gurwin Techsat 1B 26 Nov 15:08:03 15:13:17 58° 78° (ENE) 15:18:29 435.225
HORYU 2 26 Nov 15:18:24 15:22:00 25° 78° (ENE) 15:25:35 437.375
Oscar 19 26 Nov 15:23:07 15:25:31 13° 257° (WSW) 15:27:54 437.125/150
KKS-1 26 Nov 15:23:42 15:28:05 65° 282° (WNW) 15:32:31 437.445
AO-7 26 Nov 15:27:13 15:31:10 14° 73° (ENE) 15:35:05 29.400- 29.500
YUBILEINY 26 Nov 15:32:59 15:41:29 62° 267° (W) 15:50:02 435.215
RS-15 26 Nov 15:35:03 15:46:29 82° 111° (ESE) 15:57:27 29.354- 29.394
SO-50 26 Nov 15:48:14 15:52:10 24° 248° (WSW) 15:56:04 436.795
ITAMSAT 1 26 Nov 16:18:37 16:19:04 10° 257° (WSW) 16:19:30 435.822/435.867
STARS 26 Nov 16:20:19 16:23:17 18° 282° (WNW) 16:26:17 437.465
JUGNU 26 Nov 16:31:09 16:34:49 17° 166° (SSE) 16:38:29 437.505
SRMSAT 26 Nov 16:43:04 16:44:46 11° 173° (S) 16:46:28 437.500
HORYU 2 26 Nov 16:56:04 16:58:24 14° 257° (WSW) 17:00:44 437.375
O/OREOS (USA 219) 26 Nov 17:00:10 17:03:28 20° 76° (ENE) 17:06:49 437.305
JAS-2 26 Nov 17:03:20 17:09:05 28° 75° (ENE) 17:15:14 435.910
AO-7 26 Nov 17:15:18 17:23:30 69° 254° (WSW) 17:31:43 29.400- 29.500
RS-15 26 Nov 17:53:43 17:58:30 14° 293° (WNW) 18:03:16 29.354- 29.394
PCSat 26 Nov 17:58:53 18:01:14 13° 110° (ESE) 18:03:35 145.827
CUTE-I 26 Nov 17:59:24 18:02:33 16° 77° (ENE) 18:05:40 437.470
MOZHAYETS 4 26 Nov 18:07:15 18:11:33 39° 282° (WNW) 18:15:52
JUGNU 26 Nov 18:18:51 18:24:16 38° 160° (SSE) 18:29:40 437.505
BEESAT 2 26 Nov 18:30:10 18:30:46 10° 112° (ESE) 18:31:22 435.950
SRMSAT 26 Nov 18:30:24 18:34:47 21° 164° (SSE) 18:39:11 437.500
O/OREOS (USA 219) 26 Nov 18:39:43 18:42:36 17° 255° (WSW) 18:45:31 437.305
JAS-2 26 Nov 18:47:41 18:53:43 34° 259° (WSW) 19:00:19 435.910
STRAND 1 26 Nov 18:52:17 18:56:31 27° 103° (ESE) 19:00:45 437.568
Cubesat XI-IV 26 Nov 18:55:42 19:01:06 80° 77° (ENE) 19:06:28 437.490
AIST 2 26 Nov 19:04:55 19:06:58 13° 112° (ESE) 19:09:01 435.215
PRISM 26 Nov 19:11:15 19:15:09 39° 282° (WNW) 19:19:03 437.425
GONETS M04 26 Nov 19:30:01 19:35:27 18° 87° (E) 19:40:51
CUTE-I 26 Nov 19:37:32 19:42:20 34° 257° (WSW) 19:47:07 437.470
PCSat 26 Nov 19:39:22 19:44:23 40° 289° (WNW) 19:49:25 145.827
BEESAT 3 26 Nov 19:49:14 19:52:58 39° 292° (WNW) 19:56:46 437.485
CUBESAT XI-V 26 Nov 19:49:39 19:54:04 47° 282° (WNW) 19:58:29 437.345
AIST 1 26 Nov 19:53:16 19:57:31 53° 94° (E) 20:01:47
BEESAT 2 26 Nov 20:05:22 20:08:47 27° 292° (WNW) 20:12:14 435.950
JUGNU 26 Nov 20:07:29 20:13:20 77° 339° (NNW) 20:19:11 437.505
SRMSAT 26 Nov 20:18:30 20:24:16 52° 159° (SSE) 20:30:02 437.500
STRAND 1 26 Nov 20:32:07 20:35:26 18° 283° (WNW) 20:38:46 437.568
CUTE 1.7 & AOD 2 26 Nov 20:39:54 20:40:20 10° 78° (ENE) 20:40:47 437.475
AIST 2 26 Nov 20:42:04 20:45:19 23° 292° (WNW) 20:48:36 435.215
ISS 26 Nov 20:44:49 20:47:14 19° 126° (SE) 20:49:38 145.825
HO-68 26 Nov 21:02:59 21:09:39 42° 75° (ENE) 21:16:17 435.675
SEEDS 26 Nov 21:09:16 21:12:42 25° 79° (ENE) 21:16:08 437.485
BRITE-PL 26 Nov 21:10:12 21:15:18 38° 79° (E) 21:20:03 437.365/2234.400
GONETS M04 26 Nov 21:23:26 21:31:52 54° 267° (W) 21:40:19
AAUSAT CUBESAT 2 26 Nov 21:24:54 21:28:29 29° 79° (ENE) 21:32:04 437.432
DOVE 4 26 Nov 21:33:10 21:37:40 33° 79° (E) 21:41:54 437.250
CANX-2 26 Nov 21:37:14 21:41:28 87° 258° (WSW) 21:45:40 2200.000
COMPASS 1 26 Nov 21:40:02 21:44:09 59° 79° (ENE) 21:48:14 437.405
DX 1 26 Nov 21:41:03 21:44:06 19° 78° (ENE) 21:47:09 434.975-435.025
JUGNU 26 Nov 21:57:30 22:02:29 28° 342° (NNW) 22:07:29 437.505
CINEMA 3 26 Nov 22:05:05 22:09:36 46° 79° (E) 22:13:53 145.822/145.860
SRMSAT 26 Nov 22:07:39 22:13:29 57° 339° (NNW) 22:19:21 437.500
ZACube-1 26 Nov 22:10:09 22:13:11 19° 79° (E) 22:16:09 437.345
CUTE 1.7 & AOD 2 26 Nov 22:12:21 22:16:01 29° 258° (WSW) 22:19:40 437.475
VELOX 1 26 Nov 22:14:46 22:16:20 12° 78° (ENE) 22:17:55 145.980
VERMONT LUNAR 26 Nov 22:15:51 22:17:04 11° 41° (NE) 22:18:16 437.305
GOMX 1 26 Nov 22:17:05 22:22:07 46° 257° (WSW) 22:26:50 467.674
ISS 26 Nov 22:22:05 22:23:40 13° 306° (NW) 22:25:15 145.825
ANTELSAT 26 Nov 22:22:36 22:24:51 13° 103° (ESE) 22:27:06 437.575/2403.000
POLYITAN 1 26 Nov 22:35:21 22:35:59 10° 103° (ESE) 22:36:37 437.675
QB50P2 26 Nov 22:36:37 22:37:46 11° 102° (ESE) 22:38:56 145.880/145.840
AISAT 26 Nov 22:39:05 22:42:56 28° 78° (ENE) 22:46:45 437.250
UKube-1 26 Nov 22:39:39 22:43:58 62° 258° (WSW) 22:48:16 .
DUCHIFAT 1 26 Nov 22:41:29 22:43:25 13° 102° (ESE) 22:45:22 145.980
FUNcube-1 26 Nov 22:43:46 22:48:04 58° 79° (ENE) 22:52:14 145.935
SEEDS 26 Nov 22:46:40 22:48:16 12° 258° (WSW) 22:49:52 437.485
BRITE-PL 26 Nov 22:50:37 22:53:23 14° 256° (WSW) 22:56:04 437.365/2234.400
Oscar 11 26 Nov 22:50:56 22:54:52 35° 258° (WSW) 22:58:46 145.826/435.025
HO-68 26 Nov 22:51:53 22:57:00 21° 255° (WSW) 23:02:09 435.675
CUBEBUG 1 26 Nov 22:53:15 22:53:38 10° 78° (ENE) 22:54:02 437.445
NANOSAT C BR1 26 Nov 22:59:27 23:02:54 25° 102° (ESE) 23:06:22 145.865
DELFI C3 26 Nov 23:02:41 23:06:08 27° 258° (WSW) 23:09:35 145.870
50 SAT 26 Nov 23:08:34 23:12:34 53° 79° (ENE) 23:16:31 437.505
QB50P1 26 Nov 23:09:03 23:12:52 34° 102° (ESE) 23:16:44 145.935-145.965
UWE-3 26 Nov 23:11:29 23:15:42 43° 258° (WSW) 23:19:46 435.000/436.395/437.385
CUBEBUG 2 26 Nov 23:12:39 23:16:44 35° 258° (WSW) 23:20:41 437.445
DOVE 4 26 Nov 23:12:44 23:15:04 13° 256° (WSW) 23:17:20 437.250
TIGRISAT 26 Nov 23:13:58 23:18:31 70° 102° (ESE) 23:23:11 435.000
BUGSAT 1 26 Nov 23:16:40 23:20:17 33° 102° (ESE) 23:23:56 437.445
DX 1 26 Nov 23:17:01 23:20:05 19° 257° (WSW) 23:23:09 434.975-435.025
HUMSAT D 26 Nov 23:23:41 23:27:53 67° 258° (WSW) 23:32:00 437.325/437.525
UNISAT 6 26 Nov 23:27:57 23:32:31 74° 282° (WNW) 23:37:13 437.425
POPSAT HIP 1 26 Nov 23:33:31 23:37:43 82° 102° (ESE) 23:41:59 437.405
